Change the Weather History Date:

Wednesday, January 2, 2013

  Actual Average (KP67) Record (KP67)
Temperature  
Mean Temperature 20 °F -  
Max Temperature 32 °F 15 °F 39 °F (1997)
Min Temperature 8 °F 0 °F 6 °F (1998)
Degree Days  
Heating Degree Days 45    
Moisture  
Dew Point 16 °F    
Average Humidity 81    
Maximum Humidity 100    
Minimum Humidity 69    
Precipitation  
Precipitation 0.00 in - - ()
Sea Level Pressure  
Sea Level Pressure 29.99 in    
Wind  
Wind Speed 14 mph (NW)    
Max Wind Speed 18 mph    
Max Gust Speed 21 mph    
Visibility 10 miles    
Events      
Averages and records for this station are not official NWS values.
T = Trace of Precipitation, MM = Missing Value Source: NWS Daily Summary

Daily Weather History Graph

Daily Weather History Graph

Search for Another Location

Airport or City:

Trip Planner

Search our weather history database for the weather conditions in past years. The results will help you decide how hot, cold, wet, or windy it might be!

Date:

Astronomy

Jan. 02, 2013 Rise Set
Actual Time 8:13 AM CST 4:56 PM CST
Civil Twilight 7:38 AM CST 5:31 PM CST
Nautical Twilight 7:00 AM CST 6:08 PM CST
Astronomical Twilight 6:24 AM CST 6:45 PM CST
Moon 10:50 PM CST (1/2) 10:37 AM CST (1/2)
Length of Visible Light 9h 52m
Length of Day
8h 43m
Waning Gibbous, 75% of the Moon is Illuminated
Jan 2
Waning Gibbous
Jan 4
Last Quarter
Jan 11
New
Jan 18
First Quarter
Jan 26
Full

Hourly Weather History & Observations

Time (CST) Temp. Windchill Dew Point Humidity Pressure Visibility Wind Dir Wind Speed Gust Speed Precip Events Conditions
12:15 AM 14.0 °F -2.0 °F 10.4 °F 86% 29.89 in 10.0 mi SW 16.1 mph - 0.00 in   Overcast
12:35 AM 14.0 °F -0.2 °F 12.2 °F 93% 29.88 in 10.0 mi SW 12.7 mph - 0.00 in   Overcast
12:55 AM 15.8 °F 1.4 °F 12.2 °F 86% 29.87 in 10.0 mi SW 13.8 mph - 0.00 in   Mostly Cloudy
1:15 AM 15.8 °F 0.9 °F 12.2 °F 86% 29.87 in 10.0 mi SW 15.0 mph - 0.00 in   Overcast
1:35 AM 17.6 °F 2.7 °F 12.2 °F 79% 29.87 in 8.0 mi SW 16.1 mph - 0.00 in   Overcast
1:55 AM 17.6 °F 2.2 °F 14.0 °F 86% 29.86 in 10.0 mi WSW 17.3 mph - 0.00 in   Overcast
2:15 AM 17.6 °F 2.2 °F 14.0 °F 86% 29.86 in 10.0 mi WSW 17.3 mph - 0.00 in   Overcast
2:35 AM 17.6 °F 3.2 °F 14.0 °F 86% 29.87 in 10.0 mi SW 15.0 mph - 0.00 in   Overcast
2:55 AM 17.6 °F 3.2 °F 14.0 °F 86% 29.87 in 10.0 mi SW 15.0 mph - 0.00 in   Mostly Cloudy
3:15 AM 17.6 °F 4.3 °F 14.0 °F 86% 29.87 in 10.0 mi SW 12.7 mph - 0.00 in   Overcast
3:35 AM 19.4 °F 6.6 °F 15.8 °F 86% 29.87 in 10.0 mi SW 12.7 mph - 0.00 in   Overcast
3:55 AM 19.4 °F 6.0 °F 15.8 °F 86% 29.86 in 10.0 mi SW 13.8 mph - 0.00 in   Overcast
4:15 AM 19.4 °F 5.5 °F 17.6 °F 93% 29.86 in 10.0 mi SW 15.0 mph - 0.00 in   Overcast
4:35 AM 21.2 °F 8.3 °F 19.4 °F 93% 29.86 in 10.0 mi WSW 13.8 mph - 0.00 in   Overcast
4:55 AM 21.2 °F 8.3 °F 19.4 °F 93% 29.86 in 10.0 mi SW 13.8 mph - 0.00 in   Overcast
5:15 AM 21.2 °F 9.5 °F 19.4 °F 93% 29.86 in 10.0 mi WSW 11.5 mph - 0.00 in   Overcast
5:35 AM 23.0 °F 11.1 °F 23.0 °F 100% 29.86 in 10.0 mi WSW 12.7 mph - 0.00 in   Mostly Cloudy
5:55 AM 24.8 °F 14.0 °F 23.0 °F 93% 29.86 in 10.0 mi WSW 11.5 mph - 0.00 in   Mostly Cloudy
6:15 AM 26.6 °F 16.8 °F 24.8 °F 93% 29.86 in 10.0 mi West 10.4 mph - 0.00 in   Overcast
6:35 AM 32.0 °F 22.1 °F 26.6 °F 80% 29.87 in 10.0 mi WNW 13.8 mph - 0.00 in   Overcast
6:55 AM 30.2 °F 21.3 °F 26.6 °F 86% 29.88 in 10.0 mi WNW 10.4 mph - 0.00 in   Mostly Cloudy
7:15 AM 30.2 °F 21.9 °F 26.6 °F 86% 29.88 in 10.0 mi WNW 9.2 mph - 0.00 in   Mostly Cloudy
7:35 AM 30.2 °F 21.9 °F 26.6 °F 86% 29.88 in 10.0 mi West 9.2 mph - 0.00 in   Overcast
7:55 AM 30.2 °F 22.6 °F 26.6 °F 86% 29.88 in 10.0 mi West 8.1 mph - 0.00 in   Overcast
8:15 AM 30.2 °F 22.6 °F 26.6 °F 86% 29.89 in 10.0 mi West 8.1 mph - 0.00 in   Overcast
8:35 AM 30.2 °F 21.3 °F 26.6 °F 86% 29.89 in 10.0 mi West 10.4 mph - 0.00 in   Overcast
8:55 AM 28.4 °F 19.7 °F 26.6 °F 93% 29.89 in 10.0 mi West 9.2 mph - 0.00 in   Overcast
9:15 AM 30.2 °F 20.8 °F 26.6 °F 86% 29.89 in 10.0 mi West 11.5 mph - 0.00 in   Overcast
9:35 AM 30.2 °F 21.9 °F 26.6 °F 86% 29.91 in 10.0 mi NW 9.2 mph - 0.00 in   Overcast
9:55 AM 30.2 °F 18.5 °F 26.6 °F 86% 29.91 in 10.0 mi NNW 17.3 mph 20.7 mph 0.00 in   Overcast
10:15 AM 30.2 °F 18.5 °F 23.0 °F 75% 29.93 in 10.0 mi NNW 17.3 mph - 0.00 in   Overcast
10:35 AM 30.2 °F 18.1 °F 21.2 °F 69% 29.94 in 10.0 mi NNW 18.4 mph - 0.00 in   Overcast
10:55 AM 30.2 °F 18.9 °F 21.2 °F 69% 29.94 in 10.0 mi NNW 16.1 mph - 0.00 in   Mostly Cloudy
11:15 AM 30.2 °F 21.3 °F 21.2 °F 69% 29.95 in 10.0 mi NNW 10.4 mph - 0.00 in   Mostly Cloudy
11:35 AM 30.2 °F 19.3 °F 23.0 °F 75% 29.95 in 10.0 mi NNW 15.0 mph - 0.00 in   Mostly Cloudy
11:55 AM 30.2 °F 18.5 °F 23.0 °F 75% 29.96 in 10.0 mi NNW 17.3 mph - 0.00 in   Mostly Cloudy
12:15 PM 28.4 °F 17.0 °F 21.2 °F 74% 29.96 in 10.0 mi North 15.0 mph - 0.00 in   Overcast
12:35 PM 28.4 °F 17.0 °F 21.2 °F 74% 29.96 in 10.0 mi North 15.0 mph - 0.00 in   Overcast
12:55 PM 28.4 °F 18.0 °F 21.2 °F 74% 29.96 in 10.0 mi North 12.7 mph - 0.00 in   Overcast
1:15 PM 28.4 °F 19.1 °F 21.2 °F 74% 29.97 in 10.0 mi North 10.4 mph - 0.00 in   Overcast
1:35 PM 28.4 °F 18.5 °F 21.2 °F 74% 29.97 in 1.5 mi North 11.5 mph - 0.00 in   Overcast
1:55 PM 26.6 °F 15.7 °F 23.0 °F 86% 29.98 in 2.5 mi NNW 12.7 mph - 0.00 in   Mostly Cloudy
2:15 PM 26.6 °F 16.2 °F 21.2 °F 80% 29.98 in 8.0 mi North 11.5 mph - 0.00 in   Overcast
2:35 PM 26.6 °F 16.8 °F 23.0 °F 86% 29.99 in 5.0 mi North 10.4 mph - 0.00 in   Overcast
2:55 PM 26.6 °F 15.2 °F 21.2 °F 80% 30.00 in 5.0 mi NNW 13.8 mph - 0.00 in   Overcast
3:15 PM 26.6 °F 13.8 °F 19.4 °F 74% 30.01 in 7.0 mi North 17.3 mph - 0.00 in   Overcast
3:35 PM 24.8 °F 13.4 °F 19.4 °F 80% 30.02 in 8.0 mi North 12.7 mph - 0.00 in   Overcast
3:55 PM 23.0 °F 11.1 °F 17.6 °F 80% 30.03 in 10.0 mi North 12.7 mph - 0.00 in   Overcast
4:15 PM 23.0 °F 11.1 °F 15.8 °F 74% 30.04 in 10.0 mi North 12.7 mph - 0.00 in   Overcast
4:35 PM 21.2 °F 10.1 °F 15.8 °F 80% 30.05 in 10.0 mi North 10.4 mph - 0.00 in   Overcast
4:55 PM 21.2 °F 10.9 °F 14.0 °F 74% 30.06 in 10.0 mi North 9.2 mph - 0.00 in   Overcast
5:15 PM 21.2 °F 8.9 °F 14.0 °F 74% 30.07 in 10.0 mi North 12.7 mph - 0.00 in   Overcast
5:35 PM 21.2 °F 9.5 °F 14.0 °F 74% 30.08 in 10.0 mi North 11.5 mph - 0.00 in   Overcast
5:55 PM 19.4 °F 6.0 °F 12.2 °F 74% 30.09 in 10.0 mi North 13.8 mph - 0.00 in   Scattered Clouds
6:15 PM 17.6 °F 3.7 °F 10.4 °F 73% 30.11 in 10.0 mi NNW 13.8 mph - 0.00 in   Clear
6:35 PM 14.0 °F -0.2 °F 8.6 °F 79% 30.12 in 10.0 mi NNW 12.7 mph - 0.00 in   Clear
6:55 PM 14.0 °F -0.8 °F 8.6 °F 79% 30.14 in 10.0 mi NNW 13.8 mph - 0.00 in   Clear
7:15 PM 14.0 °F -0.2 °F 8.6 °F 79% 30.15 in 10.0 mi NNW 12.7 mph - 0.00 in   Clear
7:35 PM 14.0 °F -1.4 °F 6.8 °F 73% 30.16 in 10.0 mi NNW 15.0 mph - 0.00 in   Clear
7:55 PM 12.2 °F -3.7 °F 6.8 °F 79% 30.17 in 10.0 mi NNW 15.0 mph - 0.00 in   Clear
8:15 PM 12.2 °F -2.5 °F 5.0 °F 73% 30.18 in 10.0 mi NNW 12.7 mph - 0.00 in   Clear
8:35 PM 12.2 °F -3.7 °F 5.0 °F 73% 30.18 in 10.0 mi NNW 15.0 mph - 0.00 in   Clear
8:55 PM 12.2 °F -2.5 °F 5.0 °F 73% 30.19 in 10.0 mi NNW 12.7 mph - 0.00 in   Clear
9:15 PM 10.4 °F -4.8 °F 3.2 °F 73% 30.20 in 10.0 mi NNW 12.7 mph - 0.00 in   Clear
9:35 PM 10.4 °F -4.8 °F 3.2 °F 73% 30.20 in 10.0 mi NNW 12.7 mph - 0.00 in   Clear
9:55 PM 10.4 °F -4.8 °F 3.2 °F 73% 30.20 in 10.0 mi NNW 12.7 mph - 0.00 in   Clear
10:15 PM 10.4 °F -6.0 °F 3.2 °F 73% 30.22 in 10.0 mi NNW 15.0 mph - 0.00 in   Clear
10:35 PM 10.4 °F -4.8 °F 3.2 °F 73% 30.22 in 10.0 mi NW 12.7 mph - 0.00 in   Clear
10:55 PM 8.6 °F -6.3 °F 3.2 °F 79% 30.23 in 10.0 mi NNW 11.5 mph - 0.00 in   Clear
11:15 PM 8.6 °F -6.3 °F 3.2 °F 79% 30.24 in 10.0 mi NNW 11.5 mph - 0.00 in   Clear
11:35 PM 8.6 °F -6.3 °F 3.2 °F 79% 30.25 in 10.0 mi NW 11.5 mph - 0.00 in   Clear
11:55 PM 8.6 °F -6.3 °F 1.4 °F 73% 30.26 in 10.0 mi NW 11.5 mph - 0.00 in   Clear